N5271N TJIG-TJIG

Flight info

Callsign N5271N
Flight time 0h 3m
Altitude VFR
Route
Aircraft C172/L-VGD/C

Departure

Time 2026-04-30 01:42
Airport Fernando Luis Ribas Dominicci Airport (TJIG)

Arrival

Time 2026-04-30 01:45
Airport Fernando Luis Ribas Dominicci Airport (TJIG)
Time Latitude Longitude Altitude Speed Heading
2026-04-30 01:41 18.45257 -65.99344 790 ft 81 kts 342°
2026-04-30 01:42 18.45626 -65.99814 991 ft 91 kts 285°
2026-04-30 01:42 18.45758 -66.00500 1013 ft 99 kts 283°
2026-04-30 01:42 18.45896 -66.01239 1021 ft 106 kts 282°
2026-04-30 01:42 18.46012 -66.02029 998 ft 112 kts 278°
2026-04-30 01:43 18.46120 -66.02859 974 ft 115 kts 280°
2026-04-30 01:43 18.46236 -66.03689 975 ft 115 kts 279°
2026-04-30 01:43 18.46343 -66.04525 972 ft 115 kts 277°
2026-04-30 01:43 18.46267 -66.05363 891 ft 111 kts 261°
2026-04-30 01:44 18.46164 -66.06104 761 ft 94 kts 262°
2026-04-30 01:44 18.46077 -66.06750 626 ft 84 kts 263°
2026-04-30 01:44 18.45991 -66.07364 506 ft 85 kts 261°
2026-04-30 01:44 18.45908 -66.07976 387 ft 85 kts 263°
2026-04-30 01:45 18.45836 -66.08587 222 ft 85 kts 263°
2026-04-30 01:45 18.45756 -66.09209 39 ft 84 kts 262°
2026-04-30 01:45 18.45692 -66.09746 7 ft 64 kts 261°
2026-04-30 01:45 18.45672 -66.10014 7 ft 10 kts 318°
2026-04-30 01:46 18.45716 -66.10052 7 ft 9 kts 261°
2026-04-30 01:46 18.45707 -66.10136 7 ft 12 kts 274°
2026-04-30 01:46 18.45735 -66.10186 7 ft 7 kts 278°
2026-04-30 01:46 18.45724 -66.10198 7 ft 0 kts 165°